C/2010 B1 ( Cardinal )

Japanese version
Home page
Updated on December 15, 2011

---------------------------------------------------------------------

* Profile

Discovery Date January 19, 2010
Magnitude 17.7 mag
Discoverer R. D. Cardinal (Rothney Astrophysical Observatory, University of Calgary)

* Pictures

* Orbital Elements

Epoch 2011 Feb. 8.0 TT = JDT 2455600.5
T 2011 Feb. 7.07995 TT                                  MPC
q   2.9414501            (2000.0)            P               Q
z  +0.0003349      Peri.  211.52560     +0.00060659     +0.24113705
 +/-0.0000004      Node   277.21359     +0.99184007     -0.12386998
e   0.9990148      Incl.  101.97626     -0.12748689     -0.96255345
From 1951 observations 2010 Jan. 19-2011 Nov. 20, mean residual 0".5.

* Finding Charts

* Magnitudes Graph

        m1 = 9.2 + 5 log d + 7.5 log r

---------------------------------------------------------------------

The orbital elements are published on M.P.E.C. 2011-W48.
The charts are made with StellaNavigator Ver.8 (AstroArts).
The magnitudes graphs are made with Comet for Windows.

---------------------------------------------------------------------

Copyright(C) Seiichi Yoshida (comet@aerith.net). All rights reserved.